CAPE
0 0 0 0 0 0 0 0 0 0 0 0 0 0 0 0 0 0 0 0 0 0
0 0 0 0 0 0 0 0 0 0 0 0 0 0 0 0 0 0 0 0 0 0
0 0 0 0 0 0 0 0 0 0 0 0 0 0 0 0 0 0 0 0 0 0
0 0 0 0 0 0 0 0 0 0 0 0 0 0 0 0 0 0 0 0 0 8
0 0 0 0 0 0 0 0 0 0 0 0 0 0 0 0 0 4 0 0 0 0
0 0 0 0 0 0 0 0 0 0 0 0 0 0 0 0 0 8 1 0 0 0
0 0 0 0 0 0 0 0 0 0 0 0 0 0 0 0 0 13 4 0 0 0
0 0 0 0 0 0 0 0 0 0 0 1 3 0 0 0 0 10 7 0 0 0
0 0 0 0 0 0 0 0 0 0 0 13 17 0 0 0 0 1 10 15 1 0
0 0 0 0 0 0 1 8 8 11 8 12 14 0 0 0 0 0 19 27 8 0
0 0 0 0 5 10 25 27 17 11 13 6 4 0 0 0 0 0 15 31 10 2
0 0 6 1 3 18 35 39 24 9 6 0 0 0 0 0 0 0 0 0 7 8
0 3 1 0 3 29 21 34 28 21 0 0 0 0 0 0 0 0 0 0 0 3
1 0 0 1 5 17 11 3 15 0 0 0 0 0 0 0 0 0 0 0 1 7
CIN
-0 -0 -0 -0 -0 -0 -0 -0 -0 -0 -0 -0 -0 -0 -0 -0 -0 -0 -0 -0 -0 -0
-0 -0 -0 -0 -0 -0 -0 -0 -0 -0 -0 -0 -0 -0 -0 -0 -0 -0 -0 -0 -0 -0
-0 -0 -0 -0 -0 -0 -0 -0 -0 -0 -0 -0 -0 -0 -0 -0 -0 -0 -0 -0 -0 -0
-0 -0 -0 -0 -0 -0 -0 -0 -0 -0 -0 -0 -0 -0 -0 -0 -0 -0 -0 -0 -0 -25
-0 -0 -0 -0 -0 -0 -0 -0 -0 -0 -0 -0 -0 -0 -0 -0 -0 -30 -9 -0 -0 -2
-0 -0 -0 -0 -0 -0 -0 -0 -0 -0 -0 -0 -0 -0 -0 -0 -0 -26 -9 -0 -0 -0
-0 -0 -0 -0 -0 -0 -0 -0 -0 -0 -0 -39 -0 -0 -0 -0 -0 -24 -39 -0 -0 -0
-0 -0 -0 -0 -0 -0 -0 -0 -0 -0 -14 -52 -37 -0 -0 -0 -0 -32 -25 -0 -0 -0
-0 -0 -0 -0 -0 -0 -26 -53 -1 -0 -0 -38 -30 -0 -0 -0 -0 -48 -32 -28 -61 -0
-0 -0 -0 -0 -0 -3 -41 -49 -46 -49 -49 -32 -27 -0 -0 -0 -0 -0 -24 -9 -44 -32
-0 -0 -0 -0 -36 -45 -35 -33 -40 -44 -53 -44 -30 -0 -0 -0 -0 -0 -26 -9 -34 -35
-0 -0 -28 -26 -21 -30 -30 -35 -30 -53 -59 -0 -6 -0 -0 -0 -0 -0 -0 -1 -54 -44
-2 -21 -12 -4 -23 -34 -41 -35 -41 -46 -29 -0 -0 -0 -0 -0 -0 -0 -0 -0 -1 -54
-32 -12 -24 -17 -39 -41 -37 -40 -45 -30 -0 -0 -0 -0 -0 -0 -0 -0 -0 -0 -26 -49
Wind_Speed
12 14 16 17 17 17 18 19 20 22 24 25 28 29 26 22 21 23 21 22 21 19
11 13 15 15 15 16 17 19 21 22 24 25 28 29 26 23 20 22 22 21 21 19
11 13 13 14 15 16 16 18 21 21 23 25 27 28 26 23 21 21 22 22 21 20
10 11 12 13 15 15 16 18 19 20 21 22 25 28 27 24 21 21 21 22 21 20
10 11 13 13 14 14 15 16 18 19 18 20 23 26 27 24 22 22 20 22 21 20
10 11 11 12 13 14 15 15 18 18 17 18 21 24 26 24 21 20 20 22 22 18
9 10 10 11 12 13 15 15 16 17 16 16 18 22 25 25 21 19 20 23 23 19
9 10 10 11 11 12 14 15 16 16 16 16 17 20 25 26 21 21 20 22 26 22
9 9 9 10 11 13 15 16 16 16 16 17 16 18 25 26 22 20 18 21 25 25
8 8 8 10 11 13 15 17 17 17 16 16 17 20 24 26 24 21 19 18 22 26
6 7 9 10 11 12 14 16 17 17 17 18 18 20 23 24 23 20 20 19 20 22
6 7 8 9 11 12 14 16 16 17 18 18 19 20 21 23 22 20 18 20 20 19
6 6 8 10 12 13 15 15 16 18 19 20 20 22 23 25 22 21 19 18 20 20
6 7 10 13 14 14 14 16 17 19 19 20 22 23 25 25 23 21 20 20 20 21
Wind_Direction
29 26 22 23 24 24 24 24 22 20 19 18 14 13 17 22 24 23 24 23 23 26
30 27 26 27 29 25 28 27 23 21 21 20 18 16 18 23 26 24 25 26 27 29
33 31 33 31 27 29 30 27 23 23 22 22 21 20 19 22 26 25 26 27 28 30
33 35 36 33 29 32 30 28 26 25 25 25 23 22 22 23 25 25 27 27 30 32
33 37 32 33 31 32 30 29 27 27 27 27 25 22 21 22 22 24 28 28 30 33
36 33 34 34 35 32 28 30 26 26 28 28 25 23 22 21 24 26 29 28 30 35
36 35 39 38 36 31 26 26 24 25 27 27 26 23 21 23 28 29 29 26 28 39
34 38 41 36 34 32 26 24 23 23 25 26 26 25 22 23 29 28 28 27 23 34
35 44 44 40 36 26 23 21 20 22 24 25 28 27 21 22 27 28 30 27 22 22
45 47 42 33 29 19 16 17 19 22 26 27 29 25 21 21 24 28 31 32 25 19
49 45 38 33 24 24 22 18 18 23 25 25 26 24 21 21 24 27 29 32 30 25
58 45 42 29 28 25 21 16 18 21 20 22 23 21 21 21 23 26 30 27 28 29
63 55 32 23 18 21 20 20 19 19 20 22 22 20 18 17 23 25 26 25 25 25
46 36 24 20 18 19 22 19 20 19 21 23 21 21 18 19 22 26 27 28 26 24